Location: Koslow
(50.3020°N, 18.5663°E)
Time: 21:50:42
(UTC+00:00)

STARLINK-1347 - Pass Details

Date: 07 June 2020
Orbit: 378 x 381 km, 53.0° (Epoch: 04 July)

Event Time Altitude Azimuth Distance (km) Brightness Sun altitude
Rises 01:29:27 0° 291° (WNW) 2,257 6.6 -8.3°
Reaches altitude 10° 01:31:30 10° 288° (WNW) 1,403 5.5 -8.1°
Maximum altitude 01:34:37 65° 206° (SSW) 422 2.8 -7.8°
Drops below altitude 10° 01:37:43 10° 124° (ESE) 1,397 5.8 -7.5°
Sets 01:39:46 0° 121° (ESE) 2,247 6.9 -7.3°
